This demonstration page uses our WeatherBlox Daily Observations layout. Learn more.

Left ArrowRight Arrow

Hourly Observations for September 17, 2016

Temp ( °F °C ) Dew Point ( °F °C ) Humidity (%) Winds ( mph kmh ) Pressure ( in mb ) Visibility ( mi km ) Precip ( " mm )
12:51 am 00:51 Clear 61 16.1 48 8.9 63 63 SSE 3 6 29.88 1012 10 16.0934 0 0
1:51 am 01:51 Clear 60 15.6 47 8.3 62 62 Calm 29.88 1012 10 16.0934 0 0
2:51 am 02:51 Clear 62 16.7 44 6.7 52 52 Calm 29.87 1012 10 16.0934 0 0
3:51 am 03:51 Clear 58 14.4 47 8.3 67 67 Calm 29.88 1012 10 16.0934 0 0
4:51 am 04:51 Clear 56 13.3 48 8.9 75 75 Calm 29.91 1013 10 16.0934 0 0
5:51 am 05:51 Clear 55 12.8 48 8.9 77 77 Calm 29.93 1013 10 16.0934 0 0
6:51 am 06:51 Sunny 59 15 49 9.4 69 69 Calm 29.95 1014 10 16.0934 0 0
7:51 am 07:51 Sunny 65 18.3 45 7.2 49 49 Calm 29.96 1015 10 16.0934 0 0
8:51 am 08:51 Sunny 71 21.7 44 6.7 38 38 Calm 29.97 1015 10 16.0934 0 0
9:51 am 09:51 Sunny 77 25 40 4.4 26 26 Calm 29.96 1015 10 16.0934 0 0
10:51 am 10:51 Sunny 82 27.8 35 1.7 18 18 Calm 29.95 1014 10 16.0934 0 0
11:51 am 11:51 Sunny 85 29.4 37 2.8 18 18 Calm 29.94 1014 10 16.0934 0 0
12:51 pm 12:51 Sunny 87 30.6 37 2.8 17 17 NNW 3 6 29.92 1013 10 16.0934 0 0
1:51 pm 13:51 Sunny 89 31.7 35 1.7 15 15 VRB 3 6 29.89 1012 10 16.0934 0 0
2:51 pm 14:51 Sunny 89 31.7 35 1.7 15 15 VRB 7 11 29.87 1011 10 16.0934 0 0
3:51 pm 15:51 Sunny 89 31.7 37 2.8 16 16 SW 9 15 29.86 1011 10 16.0934 0 0
4:51 pm 16:51 Sunny 89 31.7 33 0.6 14 14 W 7 11 29.86 1011 10 16.0934 0 0
5:51 pm 17:51 Sunny 87 30.6 36 2.2 16 16 WSW 3 6 29.86 1011 10 16.0934 0 0
6:51 pm 18:51 Clear 80 26.7 43 6.1 27 27 WNW 3 6 29.87 1011 10 16.0934 0 0
7:51 pm 19:51 Clear 74 23.3 48 8.9 40 40 NNW 5 7 29.89 1012 10 16.0934 0 0.0254
8:51 pm 20:51 Clear 70 21.1 47 8.3 44 44 N 7 11 29.9 1012 10 16.0934 0 0
9:51 pm 21:51 Clear 70 21.1 45 7.2 41 41 E 6 9 29.89 1012 10 16.0934 0 0
10:51 pm 22:51 Clear 66 18.9 46 7.8 49 49 SE 5 7 29.89 1012 10 16.0934 0 0
11:51 pm 23:51 Clear 64 17.8 46 7.8 52 52 E 3 6 29.9 1013 10 16.0934 0 0

Powered by AerisWeather